IRIDIUM 149

Last updated on Fri Sep 11 2026 00:03:06 GMT+0000 (Coordinated Universal Time)

1 43250U 18030B 26253.49406619 .00000048 00000+0 99433-5 0 9997 2 43250 86.3906 254.6825 0002347 90.5084 269.6381 14.34217684442388
UTC large
Height (km)
Speed (km/s)
/
Latitude / Longitude
Inclination (degrees)
Orbital Period (minutes)
Azimuth
Elevation
Range (km)
Doppler Factor

Next 0 passes for location: London (51.5072 / 0.1276)

No passes found over London.
IRIDIUM 149